This is the latest recevied weather packets stored in our database for station/object KA1AL. If no packets are shown the sender has not sent any weather packets the latest 10 day(s).
| Time | Temp. | Humidity | Pressure | Rain* | Wind** | Luminosity | Snow |
|---|---|---|---|---|---|---|---|
| 1777855072 | 5° C | 66% | 1003.5 hPa | 0 mm | - | 0 W/m² | - |
| 1777854770 | 5° C | 65% | 1003 hPa | 0 mm | - | 0 W/m² | - |
| 1777854466 | 5° C | 66% | 1003.4 hPa | 0 mm | - | 0 W/m² | - |
| 1777854163 | 5° C | 65% | 1002.9 hPa | 0 mm | - | 0 W/m² | - |
| 1777853861 | 5.56° C | 65% | 1003.2 hPa | 0 mm | - | 0 W/m² | - |
| 1777853558 | 5.56° C | 65% | 1003 hPa | 0 mm | - | 0 W/m² | - |
| 1777853254 | 5.56° C | 63% | 1002.7 hPa | 0 mm | - | 0 W/m² | - |
| 1777852951 | 5.56° C | 63% | 1002.9 hPa | 0 mm | - | 0 W/m² | - |
| 1777852649 | 5.56° C | 63% | 1003 hPa | 0 mm | - | 0 W/m² | - |
| 1777852346 | 5.56° C | 63% | 1003 hPa | 0 mm | - | 0 W/m² | - |
| 1777852044 | 6.11° C | 62% | 1002.6 hPa | 0 mm | - | 1 W/m² | - |
| 1777851742 | 5.56° C | 63% | 1002.6 hPa | 0 mm | - | 4 W/m² | - |
| 1777851439 | 6.11° C | 63% | 1002.8 hPa | 0 mm | - | 6 W/m² | - |
| 1777851134 | 6.11° C | 62% | 1002.7 hPa | 0 mm | - | 9 W/m² | - |
| 1777850831 | 6.11° C | 62% | 1002.6 hPa | 0 mm | - | 11 W/m² | - |
| 1777850528 | 6.11° C | 63% | 1002.8 hPa | 0 mm | - | 14 W/m² | - |
| 1777850227 | 6.11° C | 63% | 1002.7 hPa | 0 mm | - | 17 W/m² | - |
| 1777849923 | 6.11° C | 62% | 1002.7 hPa | 0 mm | - | 19 W/m² | - |
| 1777849619 | 6.67° C | 62% | 1002.5 hPa | 0 mm | - | 22 W/m² | - |
| 1777849317 | 6.67° C | 62% | 1002.5 hPa | 0 mm | - | 25 W/m² | - |
| 1777849014 | 6.67° C | 60% | 1002.2 hPa | 0 mm | - | 27 W/m² | - |
| 1777848714 | 6.67° C | 60% | 1002.4 hPa | 0 mm | - | 46 W/m² | - |
| 1777848411 | 7.22° C | 59% | 1002.4 hPa | 0 mm | - | 33 W/m² | - |
| 1777848109 | 7.78° C | 57% | 1002.2 hPa | 0 mm | - | 47 W/m² | - |
| 1777847807 | 7.78° C | 56% | 1002.3 hPa | 0 mm | - | 78 W/m² | - |
* Rain latest hour (hover to see other rain measurements)
** Current wind speed in m/s (hover to see current wind gust speed)